When you browse on this site, cookies collect data to enhance your experience and personalize the content and advertising you see.
Visit our Privacy Policy to learn more. By continuing to use the site, you agree to this use of cookies and data.
  • In Hungary
  • List of Countries
  • For 7 days
  • Water Temperature
  • Weather Map
  • News
  • Weather Widgets
  • user-avatar
    Login

    Hourly Weather San Vicente

    Today, 15 December, Sunday

    Time Temperature Precipitation Wind Pressure Humidity
    00:00 +13°C° 0.7 mm 0 mps 588 mmHg 98%
    01:00 +13°C° 0.7 mm 0 mps 588 mmHg 98%
    02:00 +13°C° 1.5 mm 0 mps 588 mmHg 98%
    03:00 +13°C° 1.5 mm 0 mps 588 mmHg 98%
    04:00 +13°C° 1.5 mm 0 mps 587 mmHg 98%
    05:00 +13°C° 1.3 mm 0 mps 588 mmHg 98%
    06:00 +13°C° 1.3 mm 0 mps 588 mmHg 98%
    07:00 +13°C° 1.3 mm 0 mps 589 mmHg 97%
    08:00 +14°C° 0.2 mm 0 mps 589 mmHg 93%
    09:00 +15°C° 0.2 mm 0 mps 590 mmHg 89%
    10:00 +17°C° 0.2 mm 0 mps 591 mmHg 85%
    11:00 +19°C° 0.5 mm 1 mps 590 mmHg 82%
    12:00 +20°C° 0.5 mm 1 mps 590 mmHg 79%
    13:00 +21°C° 0.5 mm 1 mps 590 mmHg 77%
    14:00 +20°C° 1.3 mm 1 mps 589 mmHg 82%
    15:00 +20°C° 1.3 mm 1 mps 588 mmHg 88%
    16:00 +19°C° 1.3 mm 1 mps 587 mmHg 93%
    17:00 +18°C° 0.8 mm 1 mps 587 mmHg 95%
    18:00 +15°C° 0.8 mm 0 mps 587 mmHg 97%
    19:00 +14°C° 0.8 mm 0 mps 587 mmHg 98%
    20:00 +14°C° 0.7 mm 0 mps 587 mmHg 98%
    21:00 +13°C° 0.7 mm 0 mps 588 mmHg 98%
    22:00 +13°C° 0.7 mm 0 mps 588 mmHg 98%
    23:00 +13°C° 0.3 mm 0 mps 588 mmHg 98%

    Tomorrow, 16 December, Monday

    Time Temperature Precipitation Wind Pressure Humidity
    00:00 +13°C° 0.3 mm 0 mps 588 mmHg 98%
    01:00 +13°C° 0.3 mm 0 mps 588 mmHg 98%
    02:00 +13°C° 0.1 mm 0 mps 587 mmHg 98%
    03:00 +13°C° 0.1 mm 0 mps 587 mmHg 98%
    04:00 +12°C° 0.1 mm 0 mps 587 mmHg 98%
    05:00 +13°C° 0 mm 0 mps 587 mmHg 98%
    06:00 +13°C° 0 mm 0 mps 587 mmHg 97%
    07:00 +13°C° 0 mm 0 mps 588 mmHg 97%
    08:00 +15°C° 0 mm 0 mps 589 mmHg 86%
    09:00 +18°C° 0 mm 0 mps 590 mmHg 75%
    10:00 +22°C° 0 mm 1 mps 591 mmHg 65%
    11:00 +22°C° 0.4 mm 1 mps 591 mmHg 67%
    12:00 +22°C° 0.4 mm 1 mps 590 mmHg 70%
    13:00 +22°C° 0.4 mm 1 mps 589 mmHg 73%
    14:00 +21°C° 1 mm 1 mps 588 mmHg 78%
    15:00 +21°C° 1 mm 1 mps 587 mmHg 84%
    16:00 +20°C° 1 mm 1 mps 587 mmHg 90%
    17:00 +19°C° 0.6 mm 1 mps 586 mmHg 92%
    18:00 +15°C° 0.6 mm 0 mps 586 mmHg 95%
    19:00 +14°C° 0.6 mm 0 mps 586 mmHg 98%
    20:00 +14°C° 0.2 mm 0 mps 587 mmHg 98%
    21:00 +14°C° 0.2 mm 0 mps 587 mmHg 98%
    22:00 +14°C° 0.2 mm 0 mps 588 mmHg 98%
    23:00 +14°C° 0.3 mm 0 mps 587 mmHg 98%

    Day after tomorrow, 17 December, Tuesday

    Time Temperature Precipitation Wind Pressure Humidity
    00:00 +13°C° 0.3 mm 0 mps 587 mmHg 98%
    01:00 +13°C° 0.3 mm 0 mps 586 mmHg 97%
    02:00 +13°C° 0.2 mm 0 mps 586 mmHg 97%
    03:00 +13°C° 0.2 mm 0 mps 586 mmHg 97%
    04:00 +13°C° 0.2 mm 0 mps 586 mmHg 98%
    05:00 +13°C° 0.1 mm 0 mps 586 mmHg 97%
    06:00 +13°C° 0.1 mm 0 mps 587 mmHg 97%
    07:00 +14°C° 0.1 mm 0 mps 587 mmHg 96%
    08:00 +15°C° 0.6 mm 0 mps 588 mmHg 93%
    09:00 +16°C° 0.6 mm 0 mps 588 mmHg 89%
    10:00 +18°C° 0.6 mm 0 mps 589 mmHg 85%
    11:00 +18°C° 1.2 mm 0 mps 589 mmHg 84%
    12:00 +19°C° 1.2 mm 0 mps 588 mmHg 82%
    13:00 +20°C° 1.2 mm 0 mps 588 mmHg 80%
    14:00 +19°C° 1.3 mm 0 mps 587 mmHg 84%
    15:00 +18°C° 1.3 mm 0 mps 587 mmHg 89%
    16:00 +17°C° 1.3 mm 0 mps 586 mmHg 93%
    17:00 +16°C° 1.6 mm 0 mps 586 mmHg 94%
    18:00 +15°C° 1.6 mm 0 mps 586 mmHg 96%
    19:00 +15°C° 1.6 mm 1 mps 586 mmHg 97%
    20:00 +15°C° 1.1 mm 1 mps 586 mmHg 97%
    21:00 +15°C° 1.1 mm 1 mps 586 mmHg 97%
    22:00 +13°C° 1.1 mm 0 mps 587 mmHg 97%
    23:00 +13°C° 1.4 mm 0 mps 586 mmHg 97%

    18 December, Wednesday

    Time Temperature Precipitation Wind Pressure Humidity
    00:00 +13°C° 1.4 mm 0 mps 586 mmHg 98%
    01:00 +13°C° 1.4 mm 0 mps 586 mmHg 98%
    02:00 +13°C° 3.5 mm 0 mps 586 mmHg 98%
    03:00 +13°C° 3.5 mm 0 mps 586 mmHg 98%
    04:00 +13°C° 3.5 mm 0 mps 586 mmHg 98%
    05:00 +13°C° 1.6 mm 0 mps 586 mmHg 98%
    06:00 +13°C° 1.6 mm 0 mps 587 mmHg 98%
    07:00 +13°C° 1.6 mm 0 mps 587 mmHg 98%
    08:00 +14°C° 0.8 mm 0 mps 587 mmHg 96%
    09:00 +14°C° 0.8 mm 0 mps 588 mmHg 94%
    10:00 +15°C° 0.8 mm 0 mps 588 mmHg 93%
    11:00 +16°C° 0.7 mm 0 mps 588 mmHg 91%
    12:00 +17°C° 0.7 mm 0 mps 588 mmHg 89%
    13:00 +17°C° 0.7 mm 0 mps 588 mmHg 88%
    14:00 +17°C° 0.6 mm 0 mps 587 mmHg 89%
    15:00 +17°C° 0.6 mm 0 mps 587 mmHg 91%
    16:00 +16°C° 0.6 mm 0 mps 586 mmHg 92%
    17:00 +15°C° 0.3 mm 0 mps 586 mmHg 94%
    18:00 +14°C° 0.3 mm 0 mps 586 mmHg 96%
    19:00 +13°C° 0.3 mm 0 mps 586 mmHg 97%
    20:00 +13°C° 0.2 mm 0 mps 586 mmHg 97%
    21:00 +12°C° 0.2 mm 0 mps 586 mmHg 97%
    22:00 +13°C° 0.2 mm 1 mps 587 mmHg 97%
    23:00 +12°C° 0.1 mm 0 mps 586 mmHg 97%

    19 December, Thursday

    Time Temperature Precipitation Wind Pressure Humidity
    00:00 +12°C° 0.1 mm 0 mps 586 mmHg 96%
    01:00 +12°C° 0.1 mm 0 mps 586 mmHg 96%
    02:00 +12°C° 0 mm 0 mps 586 mmHg 96%
    03:00 +12°C° 0 mm 0 mps 585 mmHg 96%
    04:00 +12°C° 0 mm 0 mps 585 mmHg 96%
    05:00 +12°C° 0 mm 0 mps 586 mmHg 96%
    06:00 +12°C° 0 mm 0 mps 587 mmHg 96%
    07:00 +13°C° 0 mm 0 mps 587 mmHg 96%
    08:00 +14°C° 0.3 mm 0 mps 588 mmHg 91%
    09:00 +16°C° 0.3 mm 0 mps 589 mmHg 87%
    10:00 +20°C° 0.3 mm 1 mps 590 mmHg 82%
    11:00 +20°C° 1.1 mm 1 mps 589 mmHg 84%
    12:00 +20°C° 1.1 mm 1 mps 589 mmHg 86%
    13:00 +20°C° 1.1 mm 1 mps 588 mmHg 89%
    14:00 +20°C° 1.4 mm 1 mps 587 mmHg 90%
    15:00 +19°C° 1.4 mm 1 mps 587 mmHg 91%
    16:00 +19°C° 1.4 mm 1 mps 587 mmHg 92%
    17:00 +16°C° 0.6 mm 0 mps 587 mmHg 94%
    18:00 +15°C° 0.6 mm 0 mps 587 mmHg 96%
    19:00 +14°C° 0.6 mm 0 mps 587 mmHg 98%
    20:00 +14°C° 0.5 mm 0 mps 587 mmHg 98%
    21:00 +13°C° 0.5 mm 0 mps 587 mmHg 98%
    22:00 +13°C° 0.5 mm 0 mps 588 mmHg 97%
    23:00 +13°C° 0.2 mm 0 mps 587 mmHg 97%

    20 December, Friday

    Time Temperature Precipitation Wind Pressure Humidity
    00:00 +12°C° 0.2 mm 0 mps 587 mmHg 97%
    01:00 +12°C° 0.2 mm 0 mps 586 mmHg 97%
    02:00 +12°C° 0 mm 0 mps 586 mmHg 97%
    03:00 +12°C° 0 mm 0 mps 586 mmHg 97%
    04:00 +12°C° 0 mm 0 mps 586 mmHg 97%
    05:00 +12°C° 0 mm 0 mps 586 mmHg 97%
    06:00 +12°C° 0 mm 0 mps 587 mmHg 97%
    07:00 +13°C° 0 mm 0 mps 587 mmHg 97%
    08:00 +14°C° 0.3 mm 0 mps 588 mmHg 92%
    09:00 +16°C° 0.3 mm 0 mps 589 mmHg 88%
    10:00 +20°C° 0.3 mm 1 mps 590 mmHg 84%
    11:00 +20°C° 1.3 mm 1 mps 589 mmHg 84%
    12:00 +20°C° 1.3 mm 1 mps 589 mmHg 84%
    13:00 +21°C° 1.3 mm 1 mps 588 mmHg 85%
    14:00 +20°C° 1.5 mm 1 mps 588 mmHg 87%
    15:00 +20°C° 1.5 mm 1 mps 587 mmHg 90%
    16:00 +19°C° 1.5 mm 1 mps 586 mmHg 93%
    17:00 +16°C° 0.6 mm 0 mps 586 mmHg 95%
    18:00 +15°C° 0.5 mm 0 mps 587 mmHg 96%
    19:00 +14°C° 0.6 mm 0 mps 587 mmHg 98%
    20:00 +14°C° 0.2 mm 0 mps 587 mmHg 98%
    21:00 +13°C° 0.2 mm 0 mps 587 mmHg 98%
    22:00 +13°C° 0.2 mm 0 mps 588 mmHg 98%
    23:00 +13°C° 0.1 mm 0 mps 587 mmHg 98%
    Show more